Weather History for Muncie, IN

Change the Weather History Date:

Tuesday, April 2, 2013

  Actual Average Record
Temperature  
Mean Temperature 35 °F 46 °F  
Max Temperature 44 °F 56 °F 81 °F (1963)
Min Temperature 26 °F 36 °F 22 °F (1991)
Degree Days  
Heating Degree Days 30 19  
Month to date heating degree days 57 38  
Since 1 July heating degree days 4976 5208  
Cooling Degree Days 0 0  
Month to date cooling degree days 0 0  
Year to date cooling degree days 0 1  
Moisture  
Dew Point 17 °F    
Average Humidity 53    
Maximum Humidity 75    
Minimum Humidity 30    
Precipitation  
Precipitation 0.00 in 0.13 in 0.90 in (1970)
Month to date precipitation 0.00 0.25  
Year to date precipitation 6.90 7.74  
Sea Level Pressure  
Sea Level Pressure 30.22 in    
Wind  
Wind Speed 7 mph (WNW)    
Max Wind Speed 18 mph    
Max Gust Speed 24 mph    
Visibility 10 miles    
Events      
T = Trace of Precipitation, MM = Missing Value Source: NWS Daily Summary

Daily Weather History Graph

Daily Weather History Graph

Search for Another Location

Airport:

Trip Planner

Search our weather history database for the weather conditions in past years. The results will help you decide how hot, cold, wet, or windy it might be!

Date:

Astronomy

Apr. 02, 2013 Rise Set
Actual Time 7:23 AM EDT 8:07 PM EDT
Civil Twilight 6:55 AM EDT 8:34 PM EDT
Nautical Twilight 6:23 AM EDT 9:07 PM EDT
Astronomical Twilight 5:50 AM EDT 9:41 PM EDT
Moon 2:11 AM EDT (4/2) 12:13 PM EDT (4/2)
Length of Visible Light 13h 38m
Length of Day
12h 43m
Waning Gibbous, 56% of the Moon is Illuminated
Apr 2
Waning Gibbous
Apr 3
Last Quarter
Apr 10
New
Apr 18
First Quarter
Apr 25
Full

Hourly Weather History & Observations

Time (EDT) Temp. Windchill Dew Point Humidity Pressure Visibility Wind Dir Wind Speed Gust Speed Precip Events Conditions
12:53 AM 30.0 °F - 19.0 °F 64% 30.16 in 10.0 mi Calm Calm - N/A   Clear
1:53 AM 28.0 °F - 21.0 °F 75% 30.16 in 10.0 mi Calm Calm - N/A   Clear
2:53 AM 27.0 °F - 18.0 °F 69% 30.16 in 10.0 mi Calm Calm - N/A   Clear
3:53 AM 26.1 °F - 17.1 °F 69% 30.16 in 10.0 mi Calm Calm - N/A   Clear
4:53 AM 27.0 °F 21.6 °F 17.1 °F 66% 30.17 in 10.0 mi West 4.6 mph - N/A   Clear
5:53 AM 27.0 °F 19.5 °F 18.0 °F 69% 30.18 in 10.0 mi West 6.9 mph - N/A   Clear
6:53 AM 26.1 °F 19.4 °F 18.0 °F 71% 30.21 in 10.0 mi West 5.8 mph - N/A   Clear
7:53 AM 27.0 °F 23.0 °F 18.0 °F 69% 30.23 in 10.0 mi WNW 3.5 mph - N/A   Clear
8:53 AM 30.0 °F 23.2 °F 19.9 °F 66% 30.25 in 10.0 mi WNW 6.9 mph - N/A   Clear
9:53 AM 33.1 °F 27.7 °F 19.9 °F 59% 30.26 in 10.0 mi NW 5.8 mph - N/A   Clear
10:53 AM 35.1 °F 29.3 °F 14.0 °F 42% 30.27 in 10.0 mi WNW 6.9 mph - N/A   Partly Cloudy
11:53 AM 36.0 °F 31.1 °F 17.1 °F 46% 30.28 in 10.0 mi NW 5.8 mph - N/A   Clear
12:53 PM 37.9 °F 32.1 °F 17.1 °F 43% 30.27 in 10.0 mi WNW 8.1 mph 17.3 mph N/A   Clear
1:53 PM 39.9 °F 33.4 °F 16.0 °F 38% 30.25 in 10.0 mi WSW 10.4 mph - N/A   Clear
2:53 PM 43.0 °F 35.4 °F 18.0 °F 37% 30.23 in 10.0 mi NW 16.1 mph 23.0 mph N/A   Partly Cloudy
3:53 PM 43.0 °F 35.4 °F 18.0 °F 37% 30.22 in 10.0 mi West 16.1 mph 20.7 mph N/A   Partly Cloudy
4:53 PM 43.0 °F 36.8 °F 17.1 °F 35% 30.21 in 10.0 mi West 11.5 mph 20.7 mph N/A   Partly Cloudy
5:53 PM 44.1 °F 38.6 °F 17.1 °F 34% 30.21 in 10.0 mi WNW 10.4 mph - N/A   Partly Cloudy
6:53 PM 43.0 °F 36.8 °F 14.0 °F 31% 30.22 in 10.0 mi WNW 11.5 mph 18.4 mph N/A   Scattered Clouds
7:53 PM 41.0 °F 34.7 °F 15.1 °F 35% 30.23 in 10.0 mi WNW 10.4 mph - N/A   Clear
8:53 PM 39.0 °F 34.8 °F 16.0 °F 39% 30.23 in 10.0 mi West 5.8 mph - N/A   Overcast
9:53 PM 37.0 °F 31.6 °F 16.0 °F 42% 30.26 in 10.0 mi NNE 6.9 mph - N/A   Mostly Cloudy
10:53 PM 34.0 °F 31.0 °F 14.0 °F 44% 30.28 in 10.0 mi NNE 3.5 mph - N/A   Clear
11:53 PM 32.0 °F 28.7 °F 15.1 °F 50% 30.29 in 10.0 mi NNE 3.5 mph - N/A   Clear